Location: Antioch
(38.0049°N, 121.8058°W)
Time: 02:57:03
(UTC+00:00)

Cosmos 773 Rocket - Pass Details

Date: 11 February 2026
Orbit: 741 x 772 km, 74.1° (Epoch: 13 March)

Event Time Altitude Azimuth Distance (km) Brightness Sun altitude
Rises 14:01:37 0° 334° (NNW) 3,242 6.9 -12.4°
Reaches altitude 10° 14:04:05 10° 328° (NNW) 2,308 6.1 -11.9°
Maximum altitude 14:09:01 43° 258° (WSW) 1,059 4.3 -10.9°
Drops below altitude 10° 14:13:52 10° 188° (S) 2,274 6.5 -10.0°
Sets 14:16:18 0° 181° (S) 3,189 7.3 -9.5°
